Clearfield, PA

2:55 PM EDT on July 24, 2017 (GMT -0400)
Clearfield-Lawrence

Weather History for KFIG - April, 2013

Change the Weather History Date:

Thursday, April 11, 2013

  Actual Average (KDUJ) Record (KDUJ)
Temperature  
Mean Temperature 48 °F -  
Max Temperature 57 °F 53 °F 79 °F (1977)
Min Temperature 39 °F 31 °F 21 °F (1967)
Degree Days  
Heating Degree Days 17    
Moisture  
Dew Point 48 °F    
Average Humidity 95    
Maximum Humidity 100    
Minimum Humidity 89    
Precipitation  
Precipitation 0.09 in - - ()
Sea Level Pressure  
Sea Level Pressure 29.87 in    
Wind  
Wind Speed 7 mph (ENE)    
Max Wind Speed 15 mph    
Max Gust Speed 20 mph    
Visibility 6 miles    
Events Fog , Rain    
Averages and records for this station are not official NWS values.
T = Trace of Precipitation, MM = Missing Value Source: NWS Daily Summary

Daily Weather History Graph

Daily Weather History Graph

Search for Another Location

Airport or City:

Trip Planner

Search our weather history database for the weather conditions in past years. The results will help you decide how hot, cold, wet, or windy it might be!

Date:

Astronomy

Apr. 11, 2013 Rise Set
Actual Time 6:40 AM EDT 7:49 PM EDT
Civil Twilight 6:12 AM EDT 8:17 PM EDT
Nautical Twilight 5:38 AM EDT 8:51 PM EDT
Astronomical Twilight 5:03 AM EDT 9:27 PM EDT
Moon 7:10 AM EDT (4/11) 9:23 PM EDT (4/11)
Length of Visible Light 14h 05m
Length of Day
13h 09m
New Moon, 2% of the Moon is Illuminated
Apr 11
New Moon
Apr 18
First Quarter
Apr 25
Full
May 2
Last Quarter
May 9
New

Hourly Weather History & Observations

Time (EDT) Temp. Windchill Dew Point Humidity Pressure Visibility Wind Dir Wind Speed Gust Speed Precip Events Conditions
12:27 AM 57.2 °F - 57.2 °F 100% 29.84 in 10.0 mi SSW 9.2 mph - 0.00 in   Scattered Clouds
12:54 AM 57.9 °F - 55.9 °F 93% 29.80 in 10.0 mi WSW 3.5 mph - 0.00 in   Partly Cloudy
1:54 AM 57.0 °F - 55.9 °F 96% 29.85 in 10.0 mi SW 5.8 mph - N/A   Clear
2:43 AM 57.2 °F - 55.4 °F 94% 29.87 in 10.0 mi Variable 3.5 mph - 0.02 in Rain Light Rain
2:54 AM 57.9 °F - 55.9 °F 93% 29.84 in 9.0 mi WSW 4.6 mph - 0.02 in Rain Light Rain
3:10 AM 57.2 °F - 55.4 °F 94% 29.88 in 5.0 mi SW 6.9 mph - 0.03 in Rain Light Rain
3:43 AM 57.2 °F - 55.4 °F 94% 29.90 in 6.0 mi SSW 3.5 mph - 0.05 in Rain Rain
3:54 AM 57.0 °F - 55.9 °F 96% 29.89 in 6.0 mi South 4.6 mph - 0.06 in Rain Rain
4:33 AM 57.2 °F - 55.4 °F 94% 29.88 in 10.0 mi SW 3.5 mph - 0.01 in Rain Light Rain
4:54 AM 57.0 °F - 55.9 °F 96% 29.87 in 10.0 mi Calm Calm - 0.01 in   Overcast
5:12 AM 57.2 °F - 55.4 °F 94% 29.87 in 9.0 mi ESE 3.5 mph - N/A   Overcast
5:54 AM 55.9 °F - 55.0 °F 97% 29.84 in 7.0 mi Calm Calm - N/A   Overcast
6:54 AM 57.0 °F - 55.9 °F 96% 29.85 in 8.0 mi Calm Calm - N/A   Overcast
7:31 AM 57.2 °F - 55.4 °F 94% 29.87 in 0.8 mi ENE 6.9 mph - N/A   Overcast
7:39 AM 53.6 °F - 53.6 °F 100% 29.88 in 0.2 mi ENE 10.4 mph - N/A Fog Fog
7:54 AM 51.1 °F - 50.0 °F 96% 29.89 in 0.2 mi ENE 12.7 mph - N/A Fog Fog
8:06 AM 50.0 °F - 48.2 °F 94% 29.89 in 0.8 mi ENE 15.0 mph - N/A   Mist
8:31 AM 48.2 °F - 48.2 °F 100% 29.89 in 0.2 mi NE 12.7 mph - N/A Fog Fog
8:54 AM 46.9 °F - 46.9 °F 100% 29.90 in 0.2 mi ENE 9.2 mph - N/A Fog Fog
9:24 AM 46.4 °F 41.1 °F 46.4 °F 100% 29.89 in 0.5 mi ENE 11.5 mph - N/A Fog Fog
9:54 AM 46.9 °F - 46.0 °F 97% 29.91 in 0.5 mi NE 11.5 mph - N/A Fog Fog
10:13 AM 46.4 °F 42.4 °F 46.4 °F 100% 29.92 in 1.0 mi ENE 8.1 mph - N/A   Mist
10:37 AM 46.4 °F 41.9 °F 46.4 °F 100% 29.91 in 3.0 mi ENE 9.2 mph - N/A   Overcast
10:54 AM 46.9 °F - 46.9 °F 100% 29.91 in 8.0 mi ENE 9.2 mph - N/A   Overcast
11:54 AM 48.0 °F - 46.0 °F 93% 29.91 in 10.0 mi ENE 9.2 mph - N/A   Overcast
1:54 PM 48.0 °F - 46.0 °F 93% 29.90 in 10.0 mi ENE 12.7 mph - N/A   Overcast
2:47 PM 48.2 °F - 46.4 °F 93% 29.89 in 10.0 mi ENE 12.7 mph - N/A   Overcast
2:54 PM 48.0 °F - 46.0 °F 93% 29.88 in 10.0 mi NE 11.5 mph - N/A   Overcast
3:54 PM 48.9 °F - 46.0 °F 90% 29.88 in 10.0 mi ENE 8.1 mph - N/A   Overcast
4:54 PM 48.0 °F - 45.0 °F 89% 29.86 in 10.0 mi NE 8.1 mph - N/A   Overcast
5:54 PM 46.9 °F - 44.1 °F 90% 29.87 in 10.0 mi NE 11.5 mph - N/A   Overcast
6:54 PM 44.1 °F 38.1 °F 42.1 °F 93% 29.87 in 10.0 mi ENE 11.5 mph - N/A   Overcast
7:54 PM 42.1 °F 36.1 °F 39.9 °F 92% 29.88 in 10.0 mi ENE 10.4 mph - N/A   Overcast
8:54 PM 41.0 °F 35.2 °F 39.0 °F 93% 29.88 in 7.0 mi ENE 9.2 mph - N/A   Overcast
9:15 PM 41.0 °F 34.7 °F 39.2 °F 93% 29.86 in 5.0 mi ENE 10.4 mph - N/A   Overcast
9:54 PM 39.9 °F 32.9 °F 39.0 °F 97% 29.87 in 2.5 mi NE 11.5 mph - N/A   Overcast
10:06 PM 39.2 °F 32.5 °F 39.2 °F 100% 29.83 in 2.5 mi NE 10.4 mph - N/A   Overcast
10:54 PM 39.9 °F 32.9 °F 39.9 °F 100% 29.83 in 2.5 mi NE 11.5 mph - N/A   Overcast
11:42 PM 41.0 °F 33.9 °F 39.2 °F 93% 29.79 in 1.8 mi NE 12.7 mph 19.6 mph N/A   Overcast
11:54 PM 41.0 °F 33.9 °F 39.9 °F 96% 29.81 in 1.8 mi NE 12.7 mph 19.6 mph N/A   Overcast